{"data":{"norad_id":65369,"intl_designator":"2025-190U","name":"STARLINK-34913","alt_names":[],"object_type":"PAYLOAD","status":"ACTIVE","operator":null,"country":"US","launch_date":"2025-08-28","launch_site_code":"AFETR","launch_vehicle":null,"mission":null,"orbit_class":"UNKNOWN","rcs_meters":null,"size_class":null,"mass_kg":null,"dimensions":null,"purposes":["comms"],"wikipedia_slug":null,"has_3d_model":false,"image_url":null,"decayed_at":null,"tle_current":{"epoch":"2026-09-20T12:51:03.833856Z","epoch_age_seconds":111868,"freshness":"FRESH","line1":"1 65369U 25190U   26263.53546104  .00028645  00000+0  85571-3 0  9996","line2":"2 65369  53.1617 339.8283 0002540  30.2833 329.8316 15.34397722 59638","mean_motion":15.34397722,"eccentricity":0.000254,"inclination_deg":53.1617,"raan_deg":339.8283,"arg_perigee_deg":30.2833,"mean_anomaly_deg":329.8316,"bstar":0.00085571,"rev_number":5963,"period_min":93.847897409743,"perigee_km":460.97243577078,"apogee_km":464.44758605232,"semimajor_km":6840.8470109115,"source":"CELESTRAK","updated_at":"2026-09-21T09:00:35.578918Z"}}}